Date String (YYYY-MM-DD hh:mm:ss) UTC,Instrument flags,Ambient pressure (hPa),Sample flow (lpm),Bypass flow (lpm),Sample temperature (°C),Ambient temperature (°C),ASC tube jacket temperature (°C),LED temperature (°C),Box temperature (°C),Sample RH (%),Span deviation,Mass concentration (μg/m³),Mass concentration (μg/m³),Mass concentration (μg/m³)
DateTimeUTC,F1_M11,P_M11,Q1_M11,Q2_M11,T1_M11,T2_M11,T3_M11,T4_M11,T5_M11,U1_M11,ZSPAN_M11,X0_M11,X2_M11,X1_M11
2021-09-01 07:00:00,,0822.0,5.00,0.00,29.4,27.9,00.0,38.5,31.2,15.8,0001.6,0035.69,0024.75,0023.38
2021-09-01 07:01:00,,0822.1,5.01,0.00,29.4,28.1,00.0,38.5,31.2,15.8,0001.5,0035.71,0024.68,0023.30
2021-09-01 07:02:00,,0822.1,4.99,0.00,29.5,28.3,00.0,38.5,31.3,15.8,0001.4,0036.38,0024.62,0023.20
2021-09-01 07:03:00,,0822.0,5.00,0.00,29.5,28.4,00.0,38.5,31.3,15.9,0001.3,0036.68,0024.52,0023.12
2021-09-01 07:04:00,,0822.0,5.00,0.00,29.5,28.5,00.0,38.6,31.4,15.9,0001.3,0036.24,0024.45,0023.05
2021-09-01 07:05:00,,0821.9,5.01,0.00,29.6,28.6,00.0,38.6,31.4,15.8,0001.4,0036.31,0024.36,0022.97
2021-09-01 07:06:00,,0822.0,5.00,0.00,29.6,28.7,00.0,38.6,31.5,15.8,0001.4,0036.76,0024.28,0022.87
2021-09-01 07:07:00,,0821.8,5.01,0.00,29.7,28.7,00.0,38.6,31.5,15.8,0001.3,0036.77,0024.24,0022.82
2021-09-01 07:08:00,,0821.9,5.00,0.00,29.7,28.8,00.0,38.6,31.5,15.9,0001.2,0037.01,0024.20,0022.72
2021-09-01 07:09:00,,0821.8,5.01,0.00,29.7,27.6,00.0,38.6,31.2,15.9,0001.3,0038.65,0024.16,0022.62
2021-09-01 07:10:00,,0821.8,5.01,0.00,29.5,26.2,00.0,38.6,30.9,16.1,0001.3,0040.73,0024.08,0022.55
2021-09-01 07:11:00,,0821.9,4.98,0.00,29.4,26.3,00.0,38.6,30.9,16.1,0001.2,0040.83,0024.06,0022.49
2021-09-01 07:12:00,,0821.8,5.01,0.00,29.4,26.7,00.0,38.6,30.9,16.2,0001.2,0040.60,0024.01,0022.44
2021-09-01 07:13:00,,0821.8,4.99,0.00,29.3,27.1,00.0,38.5,31.0,16.1,0001.0,0040.35,0023.99,0022.44
2021-09-01 07:14:00,,0821.8,5.02,0.00,29.4,27.4,00.0,38.5,31.1,16.1,0001.1,0040.08,0024.02,0022.47
2021-09-01 07:15:00,,0821.8,4.99,0.00,29.4,27.7,00.0,38.5,31.1,16.1,0001.2,0041.05,0024.05,0022.45
2021-09-01 07:16:00,,0821.8,5.00,0.00,29.4,27.9,00.0,38.5,31.2,16.1,0001.2,0041.44,0024.05,0022.46
2021-09-01 07:17:00,,0821.8,5.00,0.00,29.4,28.1,00.0,38.5,31.2,16.2,0001.0,0040.62,0024.01,0022.46
2021-09-01 07:18:00,,0821.8,5.00,0.00,29.5,28.2,00.0,38.5,31.3,16.2,0001.1,0040.60,0023.96,0022.45
2021-09-01 07:19:00,,0821.8,4.99,0.00,29.5,28.4,00.0,38.5,31.3,16.2,0001.1,0039.87,0024.00,0022.51
2021-09-01 07:20:00,,0821.8,5.01,0.00,29.5,28.5,00.0,38.6,31.3,16.1,0000.9,0038.58,0024.05,0022.56
2021-09-01 07:21:00,,0821.8,4.99,0.00,29.6,28.5,00.0,38.6,31.4,16.1,0000.8,0037.37,0024.11,0022.61
2021-09-01 07:22:00,,0821.8,4.99,0.00,29.6,28.6,00.0,38.6,31.4,16.1,0000.8,0037.09,0024.07,0022.61
2021-09-01 07:23:00,,0821.8,5.01,0.00,29.6,28.7,00.0,38.6,31.5,16.1,0000.9,0037.61,0024.04,0022.61
2021-09-01 07:24:00,,0821.8,5.00,0.00,29.7,28.7,00.0,38.6,31.5,16.1,0001.1,0037.36,0023.97,0022.55
2021-09-01 07:25:00,,0821.8,5.00,0.00,29.7,28.8,00.0,38.7,31.5,16.0,0001.1,0036.67,0023.92,0022.49
2021-09-01 07:26:00,,0821.8,5.00,0.00,29.7,27.7,00.0,38.7,31.3,16.0,0001.1,0036.17,0023.90,0022.47
2021-09-01 07:27:00,,0821.8,5.00,0.00,29.5,26.2,00.0,38.6,30.9,16.1,0001.3,0035.19,0023.90,0022.45
2021-09-01 07:28:00,,0821.8,5.00,0.00,29.4,26.2,00.0,38.6,30.9,16.2,0001.6,0035.31,0024.00,0022.45
2021-09-01 07:29:00,,0821.8,5.00,0.00,29.4,26.6,00.0,38.6,30.9,16.2,0001.7,0035.49,0024.08,0022.46
2021-09-01 07:30:00,,0821.8,5.00,0.00,29.4,27.0,00.0,38.6,31.0,16.3,0001.7,0035.44,0024.08,0022.40
2021-09-01 07:31:00,,0821.8,5.00,0.00,29.4,27.4,00.0,38.5,31.0,16.2,0001.9,0035.79,0024.06,0022.38
2021-09-01 07:32:00,,0821.8,5.01,0.00,29.4,27.7,00.0,38.5,31.1,16.2,0001.8,0035.48,0024.08,0022.38
2021-09-01 07:33:00,,0821.8,5.00,0.00,29.4,27.9,00.0,38.5,31.2,16.2,0001.8,0035.04,0024.09,0022.41
2021-09-01 07:34:00,,0821.8,4.99,0.00,29.4,28.1,00.0,38.5,31.2,16.1,0001.9,0034.19,0024.08,0022.43
2021-09-01 07:35:00,,0821.8,5.00,0.00,29.5,28.2,00.0,38.5,31.3,16.0,0001.9,0034.12,0024.23,0022.54
2021-09-01 07:36:00,,0821.8,5.01,0.00,29.5,28.3,00.0,38.5,31.3,16.0,0001.8,0034.11,0024.29,0022.62
2021-09-01 07:37:00,,0821.8,4.98,0.00,29.5,28.5,00.0,38.6,31.4,15.9,0001.7,0034.02,0024.37,0022.71
2021-09-01 07:38:00,,0821.8,5.00,0.00,29.6,28.6,00.0,38.6,31.4,16.0,0001.5,0034.03,0024.38,0022.73
2021-09-01 07:39:00,,0821.8,4.98,0.00,29.6,28.7,00.0,38.6,31.4,15.9,0001.7,0033.80,0024.41,0022.80
2021-09-01 07:40:00,,0822.1,5.01,0.00,29.7,28.7,00.0,38.6,31.5,15.9,0001.5,0033.58,0024.46,0022.88
2021-09-01 07:41:00,,0822.2,4.99,0.00,29.7,28.8,00.0,38.6,31.5,15.9,0001.4,0033.53,0024.51,0022.96
2021-09-01 07:42:00,,0822.3,5.00,0.00,29.7,28.8,00.0,38.7,31.6,15.9,0001.3,0032.89,0024.54,0023.01
2021-09-01 07:43:00,,0822.1,5.00,0.00,29.7,27.9,00.0,38.7,31.3,16.0,0001.4,0032.48,0024.49,0023.02
2021-09-01 07:44:00,,0821.8,4.99,0.00,29.6,26.3,00.0,38.7,30.9,16.0,0001.5,0032.69,0024.52,0023.04
2021-09-01 07:45:00,,0821.8,5.01,0.00,29.5,26.3,00.0,38.6,30.9,16.0,0001.4,0034.15,0024.63,0023.09
2021-09-01 07:46:00,,0821.8,5.00,0.00,29.4,26.6,00.0,38.6,30.9,16.1,0001.5,0035.05,0024.60,0023.05
2021-09-01 07:47:00,,0821.8,5.00,0.00,29.4,27.1,00.0,38.6,31.0,16.1,0001.6,0035.07,0024.58,0023.07
2021-09-01 07:48:00,,0821.8,4.99,0.00,29.4,27.4,00.0,38.6,31.1,16.1,0001.6,0034.73,0024.52,0023.03
2021-09-01 07:49:00,,0821.8,5.01,0.00,29.4,27.7,00.0,38.6,31.1,16.1,0001.5,0034.82,0024.57,0023.08
2021-09-01 07:50:00,,0821.8,5.01,0.00,29.4,27.9,00.0,38.5,31.2,16.1,0001.4,0034.99,0024.63,0023.09
2021-09-01 07:51:00,,0821.8,5.00,0.00,29.5,28.1,00.0,38.5,31.3,16.2,0001.4,0035.80,0024.65,0023.05
2021-09-01 07:52:00,,0821.8,5.00,0.00,29.5,28.3,00.0,38.6,31.3,16.2,0001.4,0036.21,0024.59,0023.01
2021-09-01 07:53:00,,0821.8,5.01,0.00,29.5,28.4,00.0,38.6,31.3,16.2,0001.3,0036.89,0024.58,0022.99
2021-09-01 07:54:00,,0821.8,4.99,0.00,29.6,28.5,00.0,38.6,31.4,16.0,0001.3,0036.99,0024.64,0023.00
2021-09-01 07:55:00,,0821.8,4.99,0.00,29.6,28.6,00.0,38.6,31.4,16.0,0001.2,0037.03,0024.62,0023.00
2021-09-01 07:56:00,,0821.8,5.01,0.00,29.6,28.7,00.0,38.6,31.5,15.8,0001.1,0036.19,0024.58,0023.01
2021-09-01 07:57:00,,0821.8,4.99,0.00,29.7,28.8,00.0,38.6,31.5,15.6,0001.0,0035.56,0024.64,0023.13
2021-09-01 07:58:00,,0821.8,5.01,0.00,29.7,28.8,00.0,38.7,31.5,15.6,0000.6,0036.42,0024.75,0023.24
2021-09-01 07:59:00,,0821.7,4.98,0.00,29.7,28.9,00.0,38.7,31.6,15.6,0000.4,0038.43,0024.92,0023.40
